Dewpoint
54 54 55 55 55 54 55 54 55 54 55 55 53 52 51 51 50 50 50 50 50 50 49 48 49 48 47 50 48 48 48 47 48 47 48 47 47 47 46 46 44 45 47 46 45 44 43 42 42 43 44 44 44 43 42 43 44 44 44 43 43 44 43 43 40 40 43 44 44 38 36 38 31 33 33 37 39 39 39 39 41 40 39 40 40
54 54 55 55 55 54 54 54 54 54 54 53 52 52 52 51 50 50 50 51 50 50 49 49 49 48 47 47 47 47 48 47 47 47 48 47 47 48 46 46 45 45 45 45 44 44 43 43 43 45 43 42 43 39 40 40 40 40 41 41 41 42 44 42 42 41 37 43 40 39 33 39 31 32 36 38 38 39 35 37 37 37 37 39 38
55 54 54 54 54 54 54 54 53 53 52 51 51 51 51 51 51 50 50 50 51 50 50 49 49 48 48 48 48 48 48 47 47 47 47 47 46 46 47 46 45 45 45 45 44 44 43 44 44 45 44 44 44 43 42 41 40 39 41 40 40 41 40 39 40 39 35 33 41 34 34 36 36 30 33 36 38 35 34 36 36 36 37 39 38
54 54 53 53 53 53 53 54 54 53 52 51 51 51 52 52 52 51 51 50 51 51 51 50 50 50 49 49 48 48 48 48 48 47 48 47 47 46 46 46 45 45 45 44 44 44 43 44 44 44 44 43 43 43 43 42 41 40 41 41 41 39 41 39 39 40 39 30 34 32 33 35 35 31 33 33 34 34 34 35 36 36 36 36 37
54 54 53 53 53 53 53 53 53 53 52 52 52 52 53 52 53 52 51 51 52 52 53 52 51 51 51 50 50 49 49 48 48 48 48 48 47 47 47 46 47 46 46 45 46 45 44 43 44 44 43 43 43 42 42 41 39 40 39 39 39 40 40 39 36 35 34 33 36 40 38 34 33 35 33 32 32 33 34 35 35 35 37 38 37
54 53 53 53 53 53 53 52 53 52 52 52 53 53 54 54 54 54 53 53 53 53 53 53 53 54 53 52 51 50 50 50 49 49 48 48 48 47 48 47 47 47 47 46 46 45 45 44 43 44 42 43 43 43 42 40 38 38 38 38 37 38 37 37 37 36 33 32 34 36 38 35 34 36 33 35 36 34 34 35 35 36 37 38 37
54 53 53 53 53 53 53 53 53 53 53 53 53 54 54 54 54 54 54 54 53 53 53 53 54 53 53 54 53 53 52 52 52 51 50 49 49 49 48 47 47 47 47 47 46 46 45 44 44 45 43 43 43 43 42 41 41 38 40 39 36 35 35 35 35 34 35 35 35 35 35 37 36 34 32 35 34 35 36 36 36 34 38 37 37
53 53 53 53 53 52 52 53 53 53 53 53 54 54 54 54 54 54 54 54 54 54 54 53 53 54 54 53 53 53 54 53 53 53 52 51 50 49 49 48 48 47 47 47 47 47 47 45 45 45 44 43 44 44 42 40 40 39 39 38 37 36 35 37 36 35 35 36 34 34 35 35 35 36 34 34 34 34 35 36 35 35 36 38 37
51 52 52 52 52 52 52 53 53 54 54 54 54 53 54 54 54 54 54 54 54 54 54 54 53 53 53 53 53 53 53 53 54 53 53 53 51 51 49 49 49 48 48 48 48 48 48 47 45 45 47 47 45 45 43 42 38 37 38 38 37 37 37 36 35 34 35 36 36 35 35 34 34 35 34 34 34 34 36 37 36 36 36 36 35
50 50 51 51 52 52 52 53 53 53 53 53 54 54 53 53 54 54 54 54 54 54 54 53 53 52 52 52 52 53 53 53 52 50 50 53 53 52 50 50 49 48 48 48 48 48 48 47 47 48 47 47 45 42 40 40 40 38 34 37 38 36 36 36 35 36 37 36 35 36 34 34 34 35 34 35 36 37 36 36 35 35 35 34 35
49 49 50 50 50 50 51 51 51 52 52 52 52 53 53 52 53 53 53 54 54 53 53 52 52 52 52 52 52 52 52 53 48 46 45 46 52 53 51 50 49 49 49 49 48 48 48 47 47 48 48 47 46 41 39 39 37 37 37 37 38 37 36 36 37 36 38 37 36 35 34 34 35 34 35 35 37 36 36 36 35 34 33 31 29
48 48 48 48 49 50 49 50 50 51 51 52 52 51 51 51 51 51 52 52 52 52 52 52 52 51 51 51 51 52 52 50 46 45 44 44 46 51 51 51 50 50 49 49 48 48 48 48 47 46 47 47 46 42 40 38 37 36 36 36 36 36 38 40 38 35 36 35 34 35 36 34 35 35 36 37 36 35 35 34 34 33 32 31 31
42 44 44 46 47 48 48 49 50 50 50 50 49 50 50 50 50 50 50 51 50 51 51 52 52 52 51 51 51 51 51 48 44 43 42 41 41 45 50 51 50 50 50 49 49 48 48 47 46 46 45 48 46 40 38 37 37 37 37 38 38 35 34 35 38 41 37 36 36 35 35 35 35 36 38 37 38 34 33 31 32 32 32 31 31
38 39 40 44 46 46 47 48 48 48 48 48 48 49 49 49 49 49 50 50 50 50 50 50 50 50 50 51 51 50 49 45 40 39 39 39 40 41 48 48 48 48 49 48 48 48 47 46 45 44 43 44 40 36 35 36 35 35 37 38 39 39 38 36 36 37 38 38 36 35 36 37 36 38 39 38 36 33 32 32 33 32 32 32 33
39 40 39 40 41 43 45 46 47 47 46 46 47 47 48 47 48 49 50 50 50 50 50 49 50 50 49 49 49 48 45 40 38 37 38 39 39 40 46 45 44 43 43 45 46 46 45 45 45 43 41 40 39 37 36 36 38 39 39 38 38 37 38 38 38 38 38 36 36 37 37 38 38 38 38 38 37 36 35 34 34 34 35 35 34
38 37 38 40 40 40 42 42 42 42 43 44 44 44 43 45 45 45 46 46 46 46 46 47 48 48 48 48 47 45 41 37 37 37 39 39 40 44 43 42 42 41 41 42 42 43 43 43 42 42 41 40 39 37 38 39 39 38 37 37 36 37 38 38 37 38 39 37 37 37 37 38 38 38 38 36 36 36 36 36 36 35 32 31 30
40 40 38 37 42 40 40 40 40 40 41 41 41 39 39 40 40 42 43 43 44 44 45 45 45 46 45 44 45 42 38 37 37 38 38 39 41 42 41 40 39 39 39 39 40 43 42 41 40 38 38 39 38 36 37 38 38 36 35 35 34 33 33 35 37 36 36 35 35 35 35 35 35 36 36 36 36 36 35 34 32 32 31 30 31
42 42 41 39 40 41 41 40 40 40 39 39 39 39 39 40 41 41 44 43 43 43 42 42 42 43 42 40 39 39 38 38 38 38 38 40 41 41 39 39 38 36 35 35 36 39 42 41 39 37 37 38 36 35 35 37 36 35 34 34 33 32 32 34 35 36 35 35 35 34 34 34 35 36 36 36 36 37 34 32 33 32 32 32 30
41 41 41 39 37 39 41 42 41 40 40 39 39 39 39 40 40 39 40 42 42 41 43 42 39 39 39 40 42 37 37 39 38 38 38 39 40 39 39 38 36 35 34 34 34 34 35 38 39 37 37 36 34 34 34 36 35 35 35 33 32 32 32 33 34 34 35 35 34 35 35 35 35 35 36 35 35 36 36 35 34 33 31 31 31
41 42 41 40 39 40 42 42 42 41 40 41 41 40 40 40 40 40 40 42 42 41 41 40 38 36 35 35 36 36 37 37 39 37 38 38 39 39 38 37 36 34 34 33 33 33 33 34 36 33 34 34 33 33 33 33 35 35 35 34 33 32 33 34 35 35 34 34 34 34 35 34 34 34 34 34 35 37 37 35 34 33 32 31 32
38 39 40 40 39 39 42 42 42 41 41 41 40 41 41 40 39 40 40 40 40 39 39 38 36 34 34 34 34 36 37 36 38 37 37 38 37 38 38 37 36 36 34 33 32 32 32 33 34 34 33 33 33 34 34 34 34 35 35 34 34 34 34 33 35 35 34 35 35 34 34 33 33 32 32 33 33 35 35 35 35 34 33 32 31
35 36 36 37 38 38 38 41 42 42 42 41 40 40 41 40 40 39 39 39 39 38 37 37 36 34 33 33 33 33 38 39 37 36 36 37 36 36 37 37 36 34 33 32 31 32 32 32 33 34 33 33 33 33 34 34 34 36 34 33 32 33 37 36 35 34 33 33 32 32 32 32 31 31 32 32 33 34 34 34 34 34 34 33 32
34 35 35 36 37 38 38 39 39 41 41 41 40 39 40 41 40 39 39 39 39 38 37 37 36 34 32 30 30 31 32 36 36 36 35 35 35 35 35 36 35 36 33 32 32 33 34 34 36 34 33 33 33 34 34 34 34 34 33 33 33 33 35 35 34 33 32 32 32 31 31 31 31 30 31 31 32 33 32 33 33 33 33 34 34
33 34 35 36 37 39 39 40 39 39 40 40 39 39 40 40 40 39 40 40 39 38 36 36 36 35 32 29 29 30 31 32 35 35 35 35 35 35 34 35 35 35 34 33 33 33 34 34 35 34 34 34 34 33 33 33 33 33 33 33 33 33 33 32 32 32 31 31 31 30 30 30 31 30 30 31 31 31 32 32 32 33 33 33 33
34 34 34 35 35 35 37 38 39 39 38 39 39 40 42 39 39 38 39 39 39 39 36 37 37 35 32 29 28 29 31 32 34 36 35 35 35 35 34 34 33 33 34 35 34 35 34 34 34 34 33 33 33 32 32 33 32 32 32 33 34 32 32 31 32 32 31 31 30 31 30 31 30 31 31 31 31 31 31 32 32 32 33 33 33
33 33 34 34 35 36 36 36 36 37 39 38 38 38 39 39 39 38 38 38 38 37 36 36 36 35 34 31 31 30 30 31 33 36 36 36 35 34 34 34 35 35 35 35 34 34 34 33 33 33 33 33 33 33 32 33 32 32 33 33 31 32 32 32 31 31 31 31 30 30 30 30 30 31 31 31 31 30 30 30 30 30 31 31 31
34 34 34 34 35 36 36 37 36 36 36 36 37 38 40 39 39 40 39 39 38 37 37 36 36 36 34 30 31 30 30 32 32 33 34 35 34 35 34 34 34 34 35 34 34 33 33 33 32 32 32 32 32 32 32 32 32 31 31 31 31 31 32 32 32 32 31 31 30 30 30 30 31 31 30 30 30 30 30 31 30 30 31 31 30
34 34 35 35 34 35 36 35 36 36 35 35 37 37 36 38 39 39 39 40 39 38 37 37 38 37 35 32 30 29 29 32 33 32 32 33 32 32 33 33 32 32 32 32 33 33 32 32 31 31 31 30 30 30 29 30 30 30 30 31 31 31 32 32 32 32 31 31 30 30 31 31 30 30 30 30 30 30 31 31 31 30 31 31 31
34 33 33 34 35 35 35 35 36 37 35 33 31 33 34 35 36 38 37 41 39 38 38 38 38 38 36 31 29 28 28 29 30 32 33 32 31 31 31 31 32 32 32 32 32 31 30 30 30 29 28 27 27 28 28 29 28 29 30 31 31 31 31 31 30 31 31 31 30 30 30 30 30 31 31 31 31 31 31 31 31 31 31 31 30
33 33 33 33 33 34 34 35 37 36 36 35 34 34 32 34 34 36 36 37 38 37 37 38 38 37 35 33 32 30 28 28 31 32 33 32 32 31 31 32 32 32 32 31 31 29 29 28 28 28 28 27 27 26 26 26 26 27 28 29 29 30 30 30 30 30 30 30 30 30 31 31 30 30 30 30 31 31 31 31 31 31 31 31 30
32 33 33 33 33 33 33 33 34 35 37 36 36 35 34 35 34 34 34 35 36 37 36 36 36 36 36 33 32 31 31 31 32 33 34 33 32 32 32 32 32 32 32 30 28 28 27 27 26 26 25 27 25 25 25 24 25 26 27 28 28 29 28 29 30 29 29 29 30 30 31 31 30 31 30 31 31 31 31 31 31 31 30 30 30
32 32 32 33 33 33 33 33 33 33 34 36 37 37 36 35 35 34 34 34 36 37 36 35 35 35 34 33 32 32 31 31 32 33 33 33 32 32 32 32 32 32 31 31 28 28 28 27 25 25 24 25 25 23 25 26 26 27 28 27 28 27 28 29 30 31 30 30 30 30 30 30 30 30 31 31 31 31 30 31 31 31 31 31 30
31 31 32 33 33 33 32 33 33 33 34 34 32 35 36 36 35 35 34 34 34 34 34 34 35 34 33 33 32 32 32 32 33 33 33 33 33 32 32 32 32 32 31 29 28 27 26 26 26 26 26 25 25 26 27 29 28 28 29 28 28 29 30 30 30 30 30 30 30 29 29 30 30 30 31 31 30 30 31 31 31 31 31 31 30
31 31 32 32 32 33 33 33 33 34 34 35 35 36 36 37 37 36 35 34 33 33 32 33 33 33 33 33 33 32 33 33 33 33 33 32 32 32 32 32 32 31 30 29 28 26 25 26 27 28 28 27 27 26 26 28 28 29 28 29 30 30 30 30 30 30 29 30 29 30 30 30 30 30 30 31 31 31 30 30 31 30 30 30 30
31 30 30 30 32 33 33 34 34 34 34 34 35 36 36 36 36 36 36 37 37 35 33 32 32 32 33 33 33 33 33 33 33 32 32 32 32 32 31 30 29 29 29 29 28 27 26 27 27 28 28 27 27 27 28 30 29 29 29 30 30 30 30 30 29 29 29 30 29 29 30 30 31 31 31 31 31 30 30 30 30 31 31 31 30
31 31 32 31 33 33 33 32 33 33 34 35 35 35 35 35 35 36 35 36 36 32 29 30 31 33 33 33 33 33 33 32 32 32 32 32 32 31 29 28 28 28 28 28 28 28 28 28 29 29 29 29 29 28 29 29 29 29 30 29 29 29 29 29 29 29 29 29 29 29 30 30 30 31 31 31 31 31 30 30 30 31 31 31 31
32 32 33 33 33 33 33 32 32 33 32 33 34 34 34 34 34 34 34 35 33 32 31 30 30 31 32 32 33 32 32 32 32 32 32 31 30 30 30 29 28 29 28 28 28 28 28 28 28 29 29 29 30 30 29 29 30 30 29 29 29 29 28 28 29 29 28 28 28 29 30 30 30 31 31 31 31 31 31 31 31 31 31 31 31
33 32 33 32 33 33 33 33 33 31 32 33 34 34 33 33 33 32 32 32 32 30 30 30 31 30 30 30 33 32 32 32 32 32 31 31 30 30 30 30 29 29 29 29 29 29 29 28 28 29 30 30 31 30 29 29 29 29 28 29 28 27 28 28 28 28 28 28 28 29 30 30 30 31 31 31 30 30 31 31 31 31 31 31 31
33 32 31 31 31 34 34 33 32 33 32 32 33 32 32 32 32 32 31 31 31 30 30 30 30 30 30 31 31 32 30 29 29 29 29 29 30 30 30 30 30 29 29 29 28 28 28 28 28 28 29 30 29 29 29 28 28 27 28 26 26 26 26 25 26 27 27 28 28 29 29 30 30 31 31 31 31 31 31 31 31 31 31 31 31
35 34 33 32 33 33 33 33 33 33 32 32 32 32 32 32 32 32 31 31 30 30 30 30 29 29 30 30 30 29 28 28 28 29 28 28 28 29 29 29 29 28 28 28 28 28 28 28 27 28 28 28 28 29 29 27 26 26 26 25 25 25 25 25 26 26 27 28 28 28 29 30 30 31 31 31 31 31 31 31 31 32 32 31 31
36 36 34 33 33 33 32 33 33 33 32 32 32 32 32 32 32 31 31 31 30 30 30 30 29 30 30 31 30 30 29 29 29 29 29 29 29 29 29 29 28 28 28 27 27 27 28 27 25 23 21 22 25 24 27 26 26 26 25 25 25 24 24 25 25 26 27 27 28 29 29 30 30 30 30 31 31 31 32 32 32 32 32 31 32
36 36 35 34 34 34 33 32 33 32 32 31 32 32 32 31 32 31 30 30 26 24 25 27 28 31 31 31 30 30 31 30 29 30 29 29 29 28 28 29 29 29 27 27 27 25 24 24 22 21 22 22 23 24 25 25 25 25 24 24 24 24 24 24 25 25 26 27 28 28 29 29 30 30 31 31 31 31 31 32 32 32 32 31 32
36 37 36 35 35 34 33 32 32 32 31 32 31 30 30 30 31 30 29 29 28 26 26 28 29 31 31 31 31 30 30 30 29 29 30 29 29 28 28 27 26 27 27 27 26 25 23 22 21 20 22 23 23 24 25 25 25 25 24 23 23 23 23 24 24 25 26 27 27 28 29 29 30 30 30 31 31 32 32 32 32 31 32 32 32
37 36 36 35 34 33 32 32 32 31 31 30 30 30 29 30 29 29 29 30 30 30 30 31 30 30 31 31 31 30 30 30 29 29 29 28 28 27 26 25 26 26 25 25 23 21 20 22 23 20 19 20 23 25 24 24 24 23 23 23 23 23 24 23 24 25 26 26 27 28 28 29 30 30 31 31 32 31 31 31 31 31 32 32 32
37 36 35 35 35 34 33 32 32 32 31 31 31 32 31 32 31 30 30 31 31 32 31 31 31 31 30 31 31 31 30 29 29 28 28 28 27 26 25 25 25 25 25 24 22 22 21 22 21 22 22 23 24 25 23 24 23 22 23 23 23 23 23 24 24 25 26 26 26 27 28 29 30 30 31 31 32 32 31 31 31 32 32 32 32
35 35 35 35 34 34 33 33 32 33 33 32 32 32 33 33 33 33 32 32 32 31 31 31 31 31 31 31 30 30 29 28 28 28 27 27 26 25 24 24 25 25 24 23 23 23 22 20 22 24 24 24 23 23 24 24 24 24 25 24 24 24 24 25 25 25 25 26 26 27 28 29 30 31 32 32 32 32 32 32 32 32 32 32 32
35 35 35 34 34 34 34 34 34 34 34 33 33 33 33 33 33 32 32 32 32 31 31 31 31 31 31 30 30 29 28 28 27 27 26 26 25 25 24 24 24 24 23 23 22 23 23 24 22 22 23 24 23 23 23 24 24 24 24 24 25 25 24 24 25 25 25 26 26 27 28 29 30 31 32 32 32 32 32 32 32 32 32 32 32
35 35 35 35 34 34 34 34 33 33 33 33 33 32 32 32 32 31 31 31 31 31 31 31 30 30 30 29 28 28 28 27 27 27 27 26 25 25 24 24 23 22 22 22 22 23 23 22 21 22 23 23 22 22 23 24 24 24 24 24 25 24 24 24 24 25 25 25 26 27 28 30 31 32 32 32 32 32 32 32 32 32 32 32 32
34 33 33 33 33 33 33 33 33 33 32 32 31 31 31 31 31 30 30 30 30 30 29 29 29 28 28 28 28 28 28 27 27 27 27 26 26 25 25 24 23 22 22 21 21 21 21 22 23 23 24 23 22 23 23 24 24 24 24 24 24 24 24 24 24 24 24 25 25 27 29 30 31 32 32 32 32 32 32 32 32 32 32 32 32
31 32 32 32 32 32 32 32 32 31 31 31 30 30 30 29 29 29 29 28 28 28 28 28 28 28 28 27 28 27 27 27 27 27 26 26 25 25 25 24 23 21 20 20 21 22 23 24 24 24 25 24 24 24 24 24 24 24 24 24 24 24 24 23 24 24 24 24 25 26 29 30 31 31 31 32 32 32 32 32 32 32 32 32 32
30 30 30 30 30 31 31 30 29 29 29 29 29 28 28 28 28 28 28 28 27 27 27 27 27 27 27 27 27 27 27 27 27 27 27 26 26 25 25 24 24 23 22 23 24 24 24 24 24 25 25 25 25 25 25 24 24 24 24 24 24 23 23 23 23 24 24 24 26 27 29 30 30 31 31 31 31 31 32 32 32 32 32 32 32